Flag for Switzerland Weather past 2 weeks in Basel, Basel-Stadt, Switzerland

Now
64 °F

Overcast.


Feels Like: 64 °F
Forecast: 62 / 76 °F
Wind: 5 mph from South

Location: Bale-Mulhouse

Current Time: Aug 2, 2014 at 7:12:45 AM

Latest Report: Aug 2, 2014 at 6:00 AM


Visibility: 6 mi

Pressure: 29.78 "Hg

Humidity: 91%

Dew point: 61 °F

Location of BaselLocation

Historic Weather in Basel — Graph

°F

Basel temperature yesterday

Maximum temperature yesterday: 81 °F (at 6:00 PM)
Minimum temperature yesterday: 56 °F (at 5:00 AM)
Average temperature yesterday: 69 °F

Past Weeks' High & Low Weather Summary

 TemperatureHumidityPressure
High92 °F (Jul 18, 5:00 PM)97% (Jul 18, 7:00 AM)30.10 "Hg (Jul 18, 7:00 AM)
Low55 °F (Jul 25, 6:00 AM)19% (Jul 18, 5:00 PM)29.75 "Hg (Aug 1, 8:00 PM)
Average68 °F79%29.90 "Hg
* Reported Jul 18 5:00 AM — Aug 2 5:00 AM, Basel, Weather by CustomWeather, © 2014

Note: Actual official high and low records may vary slightly from our data, if they occured in-between our weather recording intervals... More about our weather records

Advertising

Basel weather history for previous 24 hours

 ConditionsComfort  
Time TempWeatherWind HumidityBarometerVisibility
5:00 AM
Aug 2
63 °FFog.3 mph94%29.77 "Hg9 mi
4:00 AM63 °FOvercast.No wind93%29.78 "Hg2 mi
3:00 AM64 °FMild.5 mph92%29.78 "Hg3 mi
2:00 AM64 °FPassing clouds.2 mph93%29.79 "Hg2 mi
1:00 AM65 °FMild.1 mph88%29.79 "Hg3 mi
12:00 AM65 °FOvercast.5 mph90%29.79 "Hg16 mi
11:00 PM
Aug 1
68 °FOvercast.2 mph83%29.79 "Hg19 mi
10:00 PM68 °FOvercast.2 mph86%29.78 "Hg25 mi
9:00 PM71 °FOvercast.2 mph84%29.77 "Hg25 mi
8:00 PM78 °FPartly sunny.2 mph70%29.75 "Hg25 mi
7:00 PM81 °FPartly sunny.2 mph47%29.76 "Hg25 mi
6:00 PM81 °FWarm.2 mph44%29.76 "Hg28 mi
5:00 PM80 °FScattered clouds.3 mph52%29.77 "Hg19 mi
4:00 PM80 °FPassing clouds.6 mph49%29.77 "Hg19 mi
3:00 PM80 °FPassing clouds.5 mph49%29.79 "Hg19 mi
2:00 PM78 °FPassing clouds.3 mph53%29.80 "Hg12 mi
1:00 PM77 °FPassing clouds.2 mph58%29.83 "Hg12 mi
12:00 PM75 °FScattered clouds.1 mph57%29.84 "Hg7 mi
11:00 AM72 °FPartly sunny.5 mph64%29.86 "Hg7 mi
10:00 AM70 °FPartly sunny.3 mph72%29.87 "Hg7 mi
9:00 AM66 °FPartly sunny.3 mph86%29.88 "Hg5 mi
8:00 AM62 °FPartly sunny.3 mph97%29.89 "Hg4 mi
7:00 AM57 °FPartly sunny.2 mph97%29.90 "Hg4 mi
Weather by CustomWeather, © 2014

See weather overviewHow to use our weather pages